Location: Glion
(46.4330°N, 6.9246°E)
Time: 11:04:57
(UTC+00:00)

Okean 1-7 - Pass Details

Date: 03 March 2021
Orbit: 589 x 619 km, 82.5° (Epoch: 23 April)

Event Time Altitude Azimuth Distance (km) Brightness Sun altitude
Rises 19:34:58 0° 343° (NNW) 2,897 6.9 -23.6°
Reaches altitude 10° 19:37:19 10° 336° (NNW) 1,983 6.1 -24.0°
Maximum altitude 19:41:22 38° 269° (W) 944 4.4 -24.7°
Drops below altitude 10° 19:45:22 10° 201° (SSW) 1,951 5.6 -25.3°
Enters shadow 19:45:48 - 199° (SSW) 2,112 5.8 -25.4°
